Showing default

IRIDIUM 118, 42807

Orbit data source: Space-Track

IRIDIUM 118, 42807 is a payload satellite owned by Iridium (US) in LEO that was launched on Sun, 25 Jun 2017 UTC via an FALCON 9 launch vehicle from the Air Force Western Test Range (AFWTR). Payload-class satellites include a variety of spacecraft equipped with specific instruments for various scientific and technological missions. These include communications satellites like Starlink; space stations such as the ISS; scientific satellites like the Hubble; Earth observation satellites from companies like Planet Labs, Umbra, and HawkEye 360; GPS; miniature CubeSats for education and research; and military/defense satellites.

Loading next visibility...
Identifier
42807, 2017-039E
Orbit
LEO
Last TLE update
16 hours ago
Origin
Manufacturer
OATK SSG Gilbert
Mission
Operational Commercial Communications
Bus & Motor
ELITEBUS, Unknown motor
Mass
860 kg wet, 700 kg dry
Launch date (UTC)
2017-06-25 (8 years ago)
Launch vehicle
FALCON 9
Launch site
Air Force Western Test Range (AFWTR)
Object type
Payload
Rocket body
Debris
Shape & HBR
Trap Box + 2 Pan, 9.4 m
Radar Cross Section
14.423 m², Large (>1 m²)

Expand to show TLE details & history

TLE from 16 hours ago
0 IRIDIUM 118
1 42807U 17039E   25128.58637748  .00000076  00000-0  20244-4 0  9996
2 42807  86.3992 162.7559 0002269  91.0995 269.0460 14.34217720411966
Epoch: 2025-05-08T14:04Z
Definitive object data (Epoch: 2025-05-08T14:04:23.014Z)
Latitude
-0.00009°
Longitude
85.00526°
Altitude
780.746 km
Speed
7.463 km/s
True Right ascension
10h 51m 01s
True Declination
0° 00' 00"
Sunlit
Object was in daylight at TLE epoch
Visualization TLE readout
Latitude
67.50597°
Longitude
-103.96023°
Altitude
787.936 km
Speed
7.467 km/s
Apparent Right ascension
00h 34m 02s
Apparent Declination
20° 06' 51"
Sunlit
Object is in daylight
Visualization observer readout
Local Sidereal Time
13:48:35
Azimuth
19.774° NNE
Elevation
-27.502°
Doppler factor
1
Orbital elements
Apogee altitude
776.255 km
Perigee altitude
773.009 km
Semi-major axis
7,152.769 km
Eccentricity
0.0002269
Inclination
86.3992°
RAAN
162.7559°
Arg. of periapsis
91.0995°
True anomaly
269.02°
Mean anomaly
269.046°
Eccentric anomaly
269.033°
Mean motion
3.58783 °/min
BSTAR
0.000020244
Orbital period
100.34 mins
Loading maneuver chart data...
Loading SW <> Apogee altitude chart data...
Loading historical data...
Loading historical data...
Loading historical data...
Loading historical data...
Loading historical data...
Loading historical data...
Loading historical data...

IRIDIUM 118 Visibility forecast

Observer location: undefined°, undefined°

Span
Click to sort rows by Start time (UTC) header in descending order
Start Az.
Max El. time (UTC)
Max El. Az.
Max El.
End time (UTC)
End Az.
10 mins2025-05-09 14:04:52.808Z4.834° NNE2025-05-09 14:09:52.808Z85.063° E41.359°2025-05-09 14:14:52.808Z166.124° S
9 mins2025-05-10 03:01:52.808Z196.994° SSW2025-05-10 03:05:52.808Z277.457° WNW41.25°2025-05-10 03:10:52.808Z355.154° N
|